Wind_Speed
5 6 6 6 5 5 4 4 5 5 5 5 4 4 4 3 2 2 2 2 1 1 1 1 2 2 2 3 3 4 4 4 4 4 4 4 4 4 4 5 5 6 6
5 6 6 6 5 5 4 4 4 5 4 4 3 3 3 3 2 2 2 2 2 2 2 2 3 3 3 3 4 4 5 5 5 5 5 5 5 5 5 6 6 7 7
6 6 6 6 5 4 4 4 4 4 4 4 4 4 4 3 3 3 3 3 3 3 4 4 4 4 4 4 5 5 5 6 6 6 7 7 6 6 7 7 7 8 8
6 7 7 6 6 5 5 4 5 5 4 4 4 5 5 5 5 5 5 5 5 5 5 5 5 5 5 6 6 7 7 7 7 8 8 8 9 9 9 9 9 10 10
7 7 7 7 6 6 6 5 5 5 6 6 6 6 6 7 7 7 7 7 7 7 7 7 6 7 7 7 8 8 8 8 9 9 9 9 10 10 11 11 11 11 11
8 8 8 7 7 7 8 7 7 7 7 7 6 7 8 9 9 9 9 8 9 9 9 8 8 8 9 9 9 9 10 10 10 11 11 11 11 12 13 13 13 13 13
8 8 9 8 8 8 8 8 9 9 8 8 7 8 9 9 9 10 10 10 10 10 10 10 10 10 10 10 11 11 11 11 12 12 12 12 13 14 14 14 14 14 14
8 9 9 9 10 9 9 10 10 10 10 9 9 10 10 10 10 11 11 11 11 11 11 12 12 11 12 11 12 12 13 13 13 14 14 14 14 14 15 16 16 16 16
8 9 9 10 10 10 10 11 11 11 12 11 11 11 11 12 12 11 11 12 12 12 12 12 13 13 13 13 13 14 14 15 15 16 16 16 16 16 17 17 17 18 18
7 8 9 10 11 11 11 12 12 13 13 13 13 12 12 12 13 13 13 13 13 13 13 13 14 14 14 15 15 16 16 16 16 17 17 17 18 18 18 18 19 19 19
6 7 9 10 11 11 12 12 13 14 14 14 14 14 14 14 14 14 14 15 15 14 14 14 15 15 16 16 16 16 17 17 18 18 19 19 19 19 20 20 20 20 20
7 8 9 10 11 12 12 13 14 15 15 16 16 16 16 16 16 16 16 16 16 16 16 17 17 17 17 17 17 18 19 19 19 20 20 20 21 21 21 21 21 22 22
7 7 9 10 11 13 13 14 15 16 16 17 17 17 17 17 17 17 17 17 17 18 18 19 19 19 19 19 19 20 20 20 21 21 22 22 22 22 22 22 23 23 23
7 7 8 9 11 12 12 13 14 15 16 17 18 18 18 18 19 19 19 19 19 20 21 21 21 21 21 21 21 21 21 22 22 22 23 23 23 24 24 24 24 24 24
9 9 9 10 11 11 12 14 14 15 17 17 18 19 19 20 20 20 20 20 20 21 21 22 22 22 22 23 22 23 23 23 23 24 24 25 25 26 26 25 25 26 26
10 10 10 10 11 12 12 13 14 15 16 17 17 18 19 20 20 21 21 21 22 22 22 23 23 23 23 23 24 25 24 25 25 25 26 26 26 26 26 26 26 27 27
11 11 11 12 12 13 13 14 14 14 15 16 17 18 19 19 20 21 21 22 22 22 22 23 24 25 25 25 25 25 25 25 26 26 27 27 27 27 27 27 28 28 29
12 12 12 13 14 14 15 15 15 16 17 17 18 18 19 20 21 21 22 23 23 24 24 24 25 26 26 26 26 26 26 26 26 26 27 27 28 29 28 29 29 29 29
13 14 14 14 14 15 15 16 16 17 17 18 19 19 20 21 22 22 22 23 24 25 26 26 26 26 27 26 27 27 27 28 27 27 28 28 29 30 30 30 30 30 31
15 15 16 15 16 16 17 17 18 17 18 19 20 21 21 21 22 23 23 23 24 25 26 27 27 28 28 28 28 29 29 29 29 29 28 28 29 30 30 31 31 32 32
17 17 17 17 17 17 18 18 18 19 19 20 21 22 22 22 23 23 24 25 25 26 26 27 27 27 28 28 29 29 30 30 29 30 29 30 30 31 31 32 32 33 34
19 18 18 19 18 19 19 18 19 20 21 21 22 23 23 24 24 24 25 26 27 27 27 27 27 27 28 29 30 30 30 30 29 29 30 31 31 31 32 33 33 34 35
20 20 20 20 20 20 20 20 20 21 21 22 24 24 24 24 24 25 26 27 27 27 27 27 28 28 28 29 30 30 30 30 30 30 31 32 32 32 32 32 33 34 34
22 22 21 21 22 22 21 21 21 21 22 22 23 23 24 24 25 26 26 26 27 27 27 28 29 29 30 31 31 32 31 31 32 32 33 33 33 33 33 34 34 34 34
25 24 24 23 23 23 23 23 23 23 23 23 23 24 24 25 25 26 26 26 26 27 28 28 29 30 31 31 31 31 31 32 32 32 33 34 34 35 35 35 35 35 35
27 27 26 26 25 24 25 26 25 25 24 24 24 24 25 25 26 26 27 27 28 28 29 30 31 32 32 32 32 32 33 33 33 33 33 34 35 35 35 35 36 36 36
Wind_Direction
183 182 183 184 183 172 157 153 158 158 154 149 155 160 167 166 171 175 178 189 204 225 263 275 278 287 276 263 262 257 256 262 267 281 289 290 289 289 290 293 293 290 287
195 194 188 187 186 184 178 172 173 170 168 171 177 183 187 194 198 208 218 230 238 249 265 276 279 289 280 273 273 267 263 268 272 281 286 288 291 289 290 292 293 291 288
197 197 195 194 195 197 192 190 186 188 189 200 210 212 213 221 231 245 244 248 255 264 271 276 277 281 283 274 275 274 268 271 275 279 282 284 286 286 288 290 292 293 290
204 204 203 202 205 209 209 208 205 208 214 223 225 227 234 241 244 253 252 254 260 266 270 275 275 275 280 279 275 276 274 276 278 278 281 283 284 284 286 287 289 289 289
218 216 214 213 215 219 221 224 221 222 227 235 241 242 242 247 250 254 255 257 263 267 271 273 273 277 278 276 277 277 277 278 281 280 281 283 284 285 287 288 288 287 288
228 228 225 224 228 228 229 232 235 236 239 244 248 249 250 257 256 255 256 260 265 270 271 273 276 277 279 276 276 277 278 280 283 282 284 284 285 286 286 287 287 287 287
232 233 235 235 236 236 237 240 240 240 246 251 253 255 258 260 258 257 258 261 266 270 273 274 275 275 276 277 276 276 279 281 287 287 288 289 290 289 287 286 286 286 287
242 241 241 242 243 243 243 244 243 245 250 254 258 260 261 262 262 261 263 263 266 271 275 275 274 274 275 276 277 278 280 282 285 286 286 287 289 291 290 289 285 284 285
248 246 244 246 245 246 247 249 247 248 251 257 262 263 261 260 262 264 266 267 269 271 275 276 274 275 277 276 276 276 277 279 282 283 283 285 287 289 293 293 290 286 285
259 253 250 250 248 250 253 253 251 250 252 256 261 263 262 261 262 264 268 270 272 272 273 275 275 275 278 279 279 278 279 279 281 281 283 286 287 288 290 291 291 290 289
275 271 261 257 255 256 257 256 254 254 255 257 259 261 263 262 263 264 266 269 272 273 273 274 275 276 278 280 280 280 281 281 280 281 282 284 286 287 288 289 290 289 288
283 278 271 268 267 266 264 261 259 259 258 258 259 261 262 263 266 267 268 269 272 275 276 275 276 277 278 280 281 281 282 282 281 281 281 282 283 285 286 288 286 286 287
296 285 280 274 270 271 271 269 267 265 265 263 262 263 263 265 267 270 270 270 271 274 276 276 277 279 281 282 281 281 282 282 281 281 281 282 282 283 285 287 285 286 287
309 301 289 283 279 277 274 272 269 269 268 266 264 265 265 266 268 271 270 271 273 275 276 275 276 278 279 280 281 281 281 282 282 282 282 283 283 284 285 286 286 287 287
314 309 297 287 283 279 279 276 274 273 270 270 267 265 265 266 267 270 271 272 274 276 278 278 278 279 281 280 281 282 282 283 284 285 284 284 285 285 285 284 287 286 286
320 309 301 297 292 289 286 283 281 276 271 270 269 268 267 269 270 271 272 273 275 275 276 279 278 279 282 283 282 283 284 284 283 285 286 287 285 285 284 285 286 285 284
320 316 305 300 297 293 287 283 285 284 280 276 274 274 271 272 274 274 273 273 274 276 277 278 279 280 282 283 285 285 286 285 285 285 285 284 284 285 285 285 285 286 286
321 316 312 305 299 295 291 285 283 283 283 280 277 278 277 277 277 277 276 275 275 276 278 278 279 280 281 282 284 285 285 285 286 286 285 284 284 284 285 286 286 287 286
320 316 311 306 303 301 295 287 283 283 282 280 278 278 279 278 276 277 278 278 278 277 278 279 278 279 280 281 281 283 284 286 287 286 285 285 284 283 283 284 286 287 286
321 319 314 309 303 300 297 290 284 283 284 281 279 279 280 280 277 277 278 279 280 280 280 280 279 279 279 280 281 282 284 286 286 286 285 285 285 285 284 285 286 286 286
321 317 314 311 305 301 300 295 288 285 284 283 282 281 281 280 279 279 279 279 281 281 281 280 280 280 279 280 281 282 284 286 285 286 284 284 285 286 285 286 286 286 286
318 314 311 310 307 303 300 298 294 290 287 287 286 284 282 280 280 280 281 280 280 280 281 282 282 281 281 281 281 282 284 285 285 285 285 285 285 285 286 287 286 287 288
314 312 309 307 305 304 302 299 296 294 293 289 288 286 283 281 281 282 283 283 283 282 281 282 283 284 284 283 283 284 285 285 284 285 286 285 285 286 286 287 288 287 287
309 309 306 305 304 302 301 298 297 295 295 294 292 289 285 283 283 284 285 286 285 284 283 282 283 283 284 284 284 284 283 282 283 285 286 286 286 286 286 287 287 288 287
304 304 303 301 300 299 299 297 293 293 293 293 293 290 288 286 285 285 286 287 287 287 285 285 284 283 283 284 285 285 285 284 284 284 284 285 285 285 285 285 286 286 286
300 299 299 298 298 297 295 294 293 292 292 292 292 292 290 288 288 287 287 288 288 288 288 288 287 285 285 285 286 286 285 284 284 284 284 285 285 286 285 284 285 286 286
Height
5908 5908 5909 5909 5910 5910 5911 5911 5912 5912 5913 5913 5914 5915 5915 5915 5916 5916 5916 5916 5916 5916 5916 5916 5916 5916 5916 5915 5915 5915 5915 5915 5915 5915 5915 5915 5914 5914 5914 5913 5913 5913 5912
5908 5908 5909 5909 5910 5910 5911 5911 5912 5912 5913 5913 5914 5915 5915 5915 5916 5916 5916 5916 5916 5916 5916 5916 5916 5915 5915 5915 5914 5914 5914 5914 5914 5914 5914 5914 5913 5913 5912 5912 5912 5911 5911
5907 5907 5908 5909 5910 5910 5911 5911 5912 5912 5913 5914 5914 5914 5915 5915 5915 5915 5915 5915 5915 5915 5915 5915 5915 5915 5914 5914 5914 5913 5913 5913 5913 5913 5913 5912 5912 5912 5911 5911 5910 5910 5909
5906 5907 5908 5908 5909 5910 5910 5911 5911 5912 5913 5913 5913 5914 5914 5914 5914 5914 5914 5914 5914 5914 5914 5914 5914 5913 5913 5913 5912 5912 5912 5912 5912 5911 5911 5911 5910 5910 5909 5909 5908 5908 5907
5905 5906 5907 5907 5908 5909 5909 5910 5911 5911 5912 5912 5912 5913 5913 5913 5913 5913 5913 5913 5913 5913 5913 5913 5912 5912 5912 5912 5911 5911 5910 5910 5910 5910 5909 5909 5908 5908 5907 5907 5906 5906 5905
5904 5905 5906 5906 5907 5908 5908 5909 5910 5910 5910 5911 5911 5911 5911 5912 5912 5912 5912 5912 5912 5911 5911 5911 5910 5910 5910 5910 5909 5909 5909 5908 5908 5908 5907 5907 5906 5905 5905 5904 5903 5903 5902
5903 5903 5904 5905 5905 5906 5907 5907 5908 5908 5909 5909 5909 5910 5910 5910 5909 5910 5910 5910 5910 5909 5909 5909 5909 5908 5908 5908 5907 5907 5907 5906 5906 5905 5905 5904 5903 5902 5902 5901 5900 5900 5899
5901 5901 5902 5903 5903 5904 5905 5906 5906 5907 5907 5907 5908 5908 5908 5908 5907 5907 5907 5907 5907 5907 5907 5907 5906 5906 5906 5905 5905 5905 5904 5904 5903 5902 5902 5901 5900 5899 5898 5897 5896 5896 5895
5899 5899 5900 5901 5901 5902 5903 5903 5904 5904 5905 5905 5905 5906 5905 5906 5905 5905 5905 5905 5905 5904 5904 5904 5904 5903 5903 5903 5902 5902 5901 5901 5900 5899 5898 5898 5897 5896 5895 5894 5893 5892 5891
5897 5897 5898 5898 5899 5900 5900 5901 5901 5902 5902 5903 5903 5903 5903 5903 5903 5903 5903 5902 5902 5902 5901 5901 5901 5900 5900 5899 5899 5898 5898 5897 5896 5896 5895 5894 5893 5892 5891 5890 5889 5888 5887
5895 5895 5896 5896 5896 5897 5898 5898 5898 5899 5899 5899 5900 5900 5900 5899 5899 5899 5899 5899 5899 5898 5898 5898 5897 5897 5896 5896 5895 5894 5894 5893 5892 5892 5891 5890 5889 5888 5886 5885 5884 5883 5882
5894 5894 5894 5894 5894 5894 5895 5895 5895 5895 5896 5896 5896 5896 5896 5896 5896 5896 5896 5895 5895 5894 5894 5894 5893 5893 5892 5892 5891 5891 5890 5889 5888 5887 5886 5885 5884 5883 5882 5880 5879 5878 5877
5893 5892 5892 5891 5891 5891 5891 5892 5892 5892 5892 5892 5892 5892 5892 5892 5892 5892 5892 5891 5891 5890 5890 5890 5889 5889 5888 5887 5887 5886 5885 5884 5883 5882 5881 5880 5879 5877 5876 5875 5874 5873 5872
5891 5890 5890 5889 5888 5888 5888 5888 5888 5888 5888 5888 5888 5888 5888 5888 5888 5888 5888 5887 5886 5886 5885 5885 5884 5884 5883 5882 5881 5881 5880 5879 5878 5877 5876 5874 5873 5872 5871 5869 5868 5867 5866
5889 5888 5887 5887 5886 5885 5885 5885 5884 5884 5884 5883 5883 5884 5884 5883 5883 5883 5883 5882 5882 5881 5881 5880 5879 5878 5878 5877 5876 5875 5874 5873 5872 5871 5870 5868 5867 5866 5864 5863 5862 5860 5859
5888 5886 5885 5884 5883 5882 5882 5881 5880 5880 5879 5879 5879 5879 5879 5879 5878 5878 5878 5877 5876 5876 5875 5875 5874 5873 5872 5871 5870 5869 5868 5867 5866 5865 5863 5862 5861 5859 5858 5856 5855 5853 5852
5886 5884 5883 5882 5880 5879 5878 5878 5877 5876 5876 5875 5875 5875 5874 5874 5873 5873 5872 5872 5871 5871 5870 5869 5868 5867 5866 5865 5864 5862 5861 5860 5859 5858 5856 5855 5854 5852 5851 5849 5848 5846 5845
5884 5882 5881 5879 5878 5876 5875 5874 5873 5873 5872 5871 5871 5870 5869 5869 5868 5867 5867 5866 5865 5865 5864 5863 5862 5860 5859 5858 5857 5856 5855 5853 5852 5851 5849 5848 5846 5845 5843 5842 5840 5839 5837
5882 5880 5878 5876 5875 5873 5872 5871 5870 5869 5868 5867 5866 5865 5864 5863 5863 5862 5861 5860 5859 5858 5857 5857 5856 5854 5853 5851 5850 5849 5848 5846 5844 5843 5842 5840 5839 5837 5836 5834 5832 5831 5829
5879 5877 5875 5873 5871 5870 5868 5866 5865 5864 5863 5862 5861 5860 5859 5858 5857 5856 5855 5854 5853 5852 5851 5849 5848 5847 5846 5844 5843 5842 5840 5839 5837 5835 5834 5832 5830 5829 5827 5826 5824 5822 5820
5877 5874 5872 5870 5868 5866 5864 5862 5861 5859 5858 5857 5856 5855 5854 5853 5851 5850 5849 5848 5847 5845 5844 5842 5841 5840 5838 5837 5835 5834 5832 5831 5829 5827 5825 5824 5822 5821 5819 5817 5815 5814 5812
5873 5871 5869 5866 5864 5862 5860 5858 5856 5855 5853 5852 5850 5849 5848 5847 5845 5844 5843 5841 5840 5838 5836 5835 5833 5832 5830 5829 5828 5826 5824 5823 5821 5820 5817 5816 5814 5812 5810 5809 5807 5805 5803
5869 5867 5864 5862 5860 5857 5855 5854 5851 5849 5847 5846 5844 5843 5841 5840 5838 5837 5836 5834 5832 5831 5829 5828 5826 5825 5823 5821 5819 5817 5816 5815 5813 5811 5809 5807 5805 5803 5801 5799 5798 5795 5793
5864 5862 5859 5857 5855 5852 5850 5848 5846 5844 5842 5840 5838 5837 5835 5833 5832 5830 5828 5827 5825 5823 5822 5820 5819 5817 5815 5813 5811 5809 5808 5806 5804 5802 5800 5799 5796 5794 5792 5790 5788 5786 5784
5859 5857 5854 5851 5849 5846 5844 5842 5840 5838 5836 5834 5832 5830 5828 5827 5825 5823 5821 5819 5817 5816 5814 5812 5810 5809 5807 5805 5803 5801 5799 5797 5795 5793 5791 5789 5787 5785 5783 5781 5778 5776 5774
5853 5850 5848 5845 5843 5840 5838 5836 5833 5831 5829 5827 5825 5823 5821 5819 5817 5815 5813 5812 5810 5808 5806 5804 5802 5800 5798 5796 5794 5792 5790 5788 5786 5784 5782 5780 5778 5775 5773 5771 5768 5766 5764